DW6386 Weather Reports


time (UTC)temp
C
wind
direction
speed
KPH
gust
KPH
rain 1hr
cm
rain 24hr
cm
rain mn
cm
humidity
%
barometer
mb
20260901010025 23 146 0.0 0.0 0.00 0.64 0.64 93 1016.5
20260901004508 24 146 0.0 0.0 0.00 0.64 0.64 92 1016.3
20260901003007 25 146 0.0 0.0 0.00 0.64 0.64 93 1016.5
20260901001506 25 146 0.0 0.0 0.00 0.64 0.64 92 1016.4
20260901000005 26 146 0.0 0.0 0.00 0.64 0.64 90 1016.4
20260831234504 27 146 0.0 0.0 0.00 0.64 0.64 90 1016.4
20260831233004 27 146 0.0 0.0 0.00 0.64 0.64 90 1016.5
20260831231502 27 146 0.0 0.0 0.00 0.64 0.64 89 1016.6
20260831230002 27 146 0.0 0.0 0.00 0.64 0.64 90 1016.6
20260831224501 27 146 0.0 0.0 0.00 0.64 0.64 91 1016.7
20260831223109 27 146 0.0 0.0 0.00 0.64 0.64 91 1016.8
20260831221604 26 146 0.0 0.0 0.00 0.64 0.64 89 1016.8
20260831220057 27 146 0.0 0.0 0.00 0.64 0.64 91 1016.9
20260831214557 26 146 0.0 0.0 0.00 0.64 0.64 90 1017.0
20260831213058 26 146 0.0 0.0 0.00 0.64 0.64 90 1017.1
20260831211607 27 146 0.0 0.0 0.00 0.64 0.64 91 1017.2
20260831210053 27 146 0.0 0.0 0.00 0.64 0.64 91 1017.2
20260831204552 27 146 0.0 0.0 0.00 0.64 0.64 92 1017.4
20260831203055 27 146 0.0 0.0 0.00 0.64 0.64 93 1017.5
20260831201558 27 146 0.0 0.0 0.00 0.64 0.64 94 1017.5
20260831200048 26 146 0.0 0.0 0.00 0.64 0.64 95 1017.8
20260831194634 26 146 0.0 0.0 0.00 0.64 0.64 94 1018.1
20260831193047 25 146 0.0 0.0 0.00 0.64 0.64 95 1018.2
20260831191547 25 146 0.0 1.6 0.00 0.64 0.64 95 1018.3
20260831190057 25 146 0.0 0.0 0.00 0.64 0.64 94 1018.4
20260831184555 24 146 0.0 0.0 0.33 0.64 0.64 94 1018.4
20260831183046 24 146 0.0 0.0 0.64 0.64 0.64 93 1018.6
20260831181549 24 147 0.0 3.2 0.64 0.64 0.64 89 1019.0
20260831180044 25 122 0.0 3.2 0.64 0.64 0.64 82 1019.1
20260831174544 30 136 1.6 6.4 0.23 0.23 0.23 69 1019.2
20260831173042 32 157 0.0 4.8 0.00 0.00 0.00 58 1018.8
20260831171544 32 90 3.2 8.0 0.00 0.00 0.00 60 1018.8
20260831170036 32 79 1.6 6.4 0.00 0.00 0.00 63 1019.0
20260831164635 32 353 3.2 6.4 0.00 0.00 0.00 66 1019.1
20260831163038 32 63 1.6 6.4 0.00 0.00 0.00 67 1019.2
20260831161533 31 271 1.6 8.0 0.00 0.00 0.00 68 1019.4
20260831160028 31 61 3.2 6.4 0.00 0.00 0.00 66 1019.5
20260831154533 30 48 1.6 6.4 0.00 0.00 0.00 70 1019.7
20260831153034 30 288 1.6 9.7 0.00 0.00 0.00 72 1019.7
20260831151522 30 289 0.0 4.8 0.00 0.00 0.00 70 1019.7
20260831150018 30 19 0.0 8.0 0.00 0.00 0.00 70 1019.6
20260831144515 28 353 0.0 1.6 0.00 0.00 0.00 74 1019.6
20260831143013 28 214 0.0 4.8 0.00 0.00 0.00 76 1019.7
20260831141512 28 184 0.0 1.6 0.00 0.00 0.00 77 1019.6
20260831140007 27 210 0.0 0.0 0.00 0.00 0.00 80 1019.7
20260831134503 26 269 0.0 1.6 0.00 0.00 0.00 83 1019.6
20260831133103 26 248 0.0 3.2 0.00 0.00 0.00 86 1019.6
20260831131603 25 136 0.0 0.0 0.00 0.00 0.00 91 1019.7
20260831130053 25 150 0.0 0.0 0.00 0.00 0.00 97 1019.5
20260831124555 23 151 0.0 0.0 0.00 0.00 0.00 97 1019.5
20260831123052 22 150 0.0 0.0 0.00 0.00 0.00 97 1019.5
20260831121547 21 151 0.0 0.0 0.00 0.00 0.00 99 1019.3
20260831120042 20 150 0.0 0.0 0.00 0.00 0.00 99 1019.2
20260831114550 20 150 0.0 0.0 0.00 0.00 0.00 99 1019.0
20260831113038 20 150 0.0 0.0 0.00 0.00 0.00 98 1018.8
20260831111534 20 150 0.0 0.0 0.00 0.00 0.00 98 1018.5
20260831110031 20 150 0.0 0.0 0.00 0.00 0.00 98 1018.5
20260831104535 20 150 0.0 0.0 0.00 0.00 0.00 98 1018.3
20260831103028 20 150 0.0 0.0 0.00 0.00 0.00 98 1018.3
20260831101528 20 150 0.0 0.0 0.00 0.00 0.00 98 1018.2
20260831100025 20 150 0.0 0.0 0.00 0.00 0.00 98 1018.1
20260831094524 20 150 0.0 0.0 0.00 0.00 0.00 98 1018.0
20260831093023 20 150 0.0 0.0 0.00 0.00 0.00 98 1017.9
20260831091522 20 150 0.0 0.0 0.00 0.00 0.00 98 1017.8
20260831090020 20 150 0.0 0.0 0.00 0.00 0.00 98 1017.8
20260831084519 20 150 0.0 0.0 0.00 0.00 0.00 97 1017.8
20260831083018 20 150 0.0 0.0 0.00 0.00 0.00 98 1017.6
20260831081518 20 150 0.0 0.0 0.00 0.00 0.00 98 1017.6
20260831080015 20 150 0.0 0.0 0.00 0.00 0.00 97 1017.5
20260831074515 20 150 0.0 0.0 0.00 0.00 0.00 97 1017.6
20260831073017 20 150 0.0 0.0 0.00 0.00 0.00 97 1017.6
20260831071518 21 150 0.0 0.0 0.00 0.00 0.00 97 1017.7
20260831070012 21 150 0.0 0.0 0.00 0.00 0.00 97 1017.8
20260831064517 21 150 0.0 0.0 0.00 0.00 0.00 96 1017.8
20260831063018 21 150 0.0 0.0 0.00 0.00 0.00 96 1017.7
20260831061508 21 150 0.0 0.0 0.00 0.00 0.00 96 1017.9
20260831060006 21 150 0.0 0.0 0.00 0.00 0.00 96 1018.1
20260831054506 21 150 0.0 0.0 0.00 0.00 0.00 96 1018.0
20260831053004 21 150 0.0 0.0 0.00 0.00 0.00 95 1018.0
20260831051504 21 150 0.0 0.0 0.00 0.00 0.00 95 1017.9
20260831050001 21 150 0.0 0.0 0.00 0.00 0.00 95 1017.8
20260831044601 21 150 0.0 0.0 0.00 0.00 0.00 95 1017.7
20260831043100 21 150 0.0 0.0 0.00 0.00 0.00 94 1017.7
20260831041618 21 150 0.0 0.0 0.00 0.00 0.00 94 1017.6
20260831040054 21 150 0.0 0.0 0.00 0.00 0.00 94 1017.7
20260831034555 22 150 0.0 0.0 0.00 0.00 0.00 93 1017.8
20260831033108 22 150 0.0 0.0 0.00 0.00 0.00 92 1017.8
20260831031555 22 150 0.0 0.0 0.00 0.00 0.00 92 1017.8
20260831030052 22 150 0.0 0.0 0.00 0.00 0.00 92 1017.8
20260831024552 22 150 0.0 0.0 0.00 0.00 0.00 92 1017.7
20260831023055 22 150 0.0 0.0 0.00 0.00 0.00 91 1017.7
20260831021550 23 150 0.0 0.0 0.00 0.00 0.00 91 1017.7
20260831020050 23 150 0.0 0.0 0.00 0.00 0.00 90 1017.6
20260831014559 23 150 0.0 0.0 0.00 0.00 0.00 89 1017.4
20260831013056 23 150 0.0 0.0 0.00 0.00 0.00 88 1017.3
20260831011549 24 150 0.0 0.0 0.00 0.00 0.00 87 1017.2